Tracking 22879 objects as of 21-Apr-2021
HD Live streaming from Space Station
objects crossing your sky now

COSMOS 1636

Track COSMOS 1636 now!
10-day predictions
COSMOS 1636 is classified as:


NORAD ID: 15618
Int'l Code: 1985-023B
Perigee: 1,481.2 km
Apogee: 1,501.3 km
Inclination: 74.1 °
Period: 115.6 minutes
Semi major axis: 7862 km
RCS: 0.6956 m2 (medium)
Launch date: March 21, 1985
Source: Commonwealth of Independent States (former USSR) (CIS)
Launch site: PLESETSK MISSILE AND SPACE COMPLEX (PKMTR)
aabbcc
Your satellite tracking list
Your tracking list is empty




NASA's NSSDC Master Catalog

Two Line Element Set (TLE):
1 15618U 85023B   21110.56145472 -.00000014  00000-0  77712-5 0  9993
2 15618  74.0522 136.9299 0012791 348.0888 182.1616 12.45321419640378
Source of the keplerian elements: AFSPC